DW6062 Weather Reports


time (UTC)temp
C
wind
direction
speed
KPH
gust
KPH
rain 1hr
cm
rain 24hr
cm
rain mn
cm
humidity
%
barometer
mb
20260507123112 6 214 3.2 9.7 0.00 1.02 0.00 75 1014.1
20260507122611 6 239 4.8 11.3 0.00 1.09 0.00 74 1014.2
20260507122112 6 243 4.8 12.9 0.00 1.17 0.00 75 1014.3
20260507121612 6 222 4.8 11.3 0.00 1.24 0.00 75 1014.2
20260507121112 5 199 1.6 3.2 0.00 1.32 0.00 76 1014.2
20260507120612 5 199 3.2 4.8 0.00 1.37 0.00 76 1014.3
20260507120111 5 209 3.2 4.8 0.00 1.45 0.00 76 1014.2
20260507115611 5 188 1.6 4.8 0.00 1.47 0.00 76 1014.1
20260507115112 5 196 3.2 11.3 0.00 1.55 0.00 77 1014.1
20260507114612 5 257 8.0 11.3 0.00 1.55 0.00 77 1014.0
20260507114111 5 212 1.6 8.0 0.00 1.57 0.00 78 1014.1
20260507113611 5 223 3.2 8.0 0.00 1.57 0.00 79 1014.0
20260507113111 4 213 1.6 3.2 0.00 1.57 0.00 80 1014.1
20260507112612 4 209 1.6 4.8 0.00 1.57 0.00 80 1013.8
20260507111612 4 221 3.2 4.8 0.00 1.60 0.00 80 1013.8
20260507111112 4 225 1.6 3.2 0.00 1.63 0.00 80 1013.8
20260507110611 4 193 1.6 4.8 0.00 1.63 0.00 81 1013.7
20260507110112 4 172 1.6 4.8 0.00 1.65 0.00 81 1014.0
20260507105612 4 236 4.8 8.0 0.00 1.68 0.00 81 1013.7
20260507105112 4 194 1.6 4.8 0.00 1.68 0.00 81 1013.8
20260507104611 4 183 3.2 3.2 0.00 1.70 0.00 81 1013.6
20260507104111 4 203 1.6 3.2 0.00 1.73 0.00 81 1013.5
20260507103612 4 217 1.6 3.2 0.00 1.75 0.00 81 1013.6
20260507103112 4 173 1.6 3.2 0.00 1.75 0.00 81 1013.6
20260507102612 4 201 1.6 3.2 0.00 1.78 0.00 81 1013.6
20260507102112 4 208 1.6 3.2 0.00 1.80 0.00 81 1013.3
20260507101611 4 205 0.0 3.2 0.00 1.83 0.00 81 1013.4
20260507101111 4 204 1.6 3.2 0.00 1.83 0.00 81 1013.3
20260507100612 4 200 1.6 3.2 0.00 1.88 0.00 81 1013.4
20260507100112 4 219 0.0 3.2 0.00 1.91 0.00 81 1013.3
20260507095612 4 201 1.6 3.2 0.00 1.91 0.00 81 1013.4
20260507095112 4 197 1.6 3.2 0.00 1.93 0.00 81 1013.1
20260507094612 5 209 3.2 3.2 0.00 1.98 0.00 81 1013.3
20260507023112 8 193 0.0 0.0 0.00 2.01 0.00 61 1014.3
20260507022612 8 193 0.0 0.0 0.00 2.03 0.00 61 1014.5
20260507022112 8 214 0.0 0.0 0.00 2.06 0.00 61 1014.4
20260507021612 8 199 0.0 1.6 0.00 2.11 0.00 61 1014.4
20260507020612 8 202 0.0 0.0 0.00 2.21 0.00 60 1014.1
20260507020112 8 198 0.0 0.0 0.00 2.29 0.00 60 1014.3
20260507015612 8 194 0.0 1.6 0.00 2.31 0.00 60 1014.2
20260507014112 8 194 0.0 0.0 0.00 2.41 0.00 60 1014.5
20260507013612 8 202 1.6 1.6 0.00 2.44 0.00 60 1014.2
20260507013112 8 197 0.0 0.0 0.00 2.46 0.00 60 1014.2
20260507012612 8 210 0.0 1.6 0.00 2.49 0.00 60 1014.2
20260507012111 8 194 0.0 0.0 0.00 2.57 0.00 60 1014.1
20260507011612 8 197 0.0 1.6 0.00 2.59 0.00 59 1014.0
20260507011112 8 200 0.0 1.6 0.00 2.62 0.00 59 1013.8
20260507010612 8 194 1.6 3.2 0.00 2.67 0.00 58 1014.0
20260507005612 9 195 0.0 1.6 0.00 2.77 0.00 59 1013.9
20260507005111 9 196 0.0 1.6 0.00 2.84 0.00 58 1013.7
20260507004611 9 208 1.6 3.2 0.00 2.87 0.00 58 1013.9
20260507004112 9 198 0.0 3.2 0.00 2.92 0.00 56 1013.7
20260507003612 9 206 0.0 1.6 0.00 2.97 0.00 55 1013.7
20260507003112 9 201 1.6 4.8 0.00 3.02 0.00 55 1013.7
20260507002611 9 287 1.6 4.8 0.00 3.07 0.00 56 1013.6
20260507002112 9 204 0.0 8.0 0.00 3.12 0.00 57 1013.7
20260507001612 9 207 0.0 3.2 0.00 3.15 0.00 57 1013.7
20260507001112 10 207 0.0 3.2 0.00 3.15 0.00 58 1013.4
20260507000611 10 194 0.0 3.2 0.00 3.15 0.00 59 1013.7
20260507000112 10 200 0.0 3.2 0.00 3.15 0.00 58 1013.7
20260506235112 10 187 0.0 3.2 0.00 3.15 0.00 57 1013.5
20260506234612 10 174 1.6 3.2 0.00 3.15 0.00 56 1013.6
20260506234112 10 128 0.0 3.2 0.00 3.15 0.00 57 1013.8
20260506233611 10 213 0.0 3.2 0.00 3.17 0.00 56 1013.5
20260506233111 10 210 1.6 4.8 0.00 3.17 0.00 56 1013.8
20260506232611 10 200 1.6 4.8 0.00 3.23 0.00 55 1013.8
20260506231612 10 299 3.2 4.8 0.00 3.28 0.00 54 1013.8
20260506230612 10 92 3.2 9.7 0.00 3.35 0.00 53 1013.7
20260506230112 10 326 3.2 16.1 0.00 3.35 0.00 53 1013.6
20260506225111 10 268 3.2 14.5 0.00 3.38 0.00 56 1013.6
20260506224612 10 27 8.0 14.5 0.00 3.40 0.00 55 1013.6
20260506224112 10 248 4.8 11.3 0.00 3.40 0.00 54 1013.5
20260506223612 11 193 1.6 4.8 0.00 3.43 0.00 55 1013.4
20260506223112 11 182 0.0 4.8 0.00 3.45 0.00 57 1013.5
20260506222611 11 230 1.6 4.8 0.00 3.45 0.00 58 1013.7
20260506221611 11 342 3.2 8.0 0.00 3.48 0.00 55 1013.5
20260506221112 11 283 4.8 11.3 0.00 3.48 0.00 56 1013.5
20260506220612 11 206 3.2 11.3 0.00 3.53 0.00 55 1013.3
20260506215612 11 327 3.2 9.7 0.00 3.66 0.00 54 1013.2
20260506215112 11 179 3.2 8.0 0.00 3.78 0.00 53 1013.0
20260506214612 11 151 4.8 9.7 0.00 3.86 0.00 53 1013.3
20260506214112 11 243 3.2 9.7 0.00 3.94 0.00 54 1013.1
20260506213111 11 206 1.6 8.0 0.00 3.99 0.00 52 1013.0
20260506212612 11 201 3.2 8.0 0.00 4.01 0.00 52 1013.0
20260506212111 11 226 1.6 8.0 0.00 4.01 0.00 52 1012.9
20260506211611 11 0 3.2 9.7 0.00 4.01 0.00 50 1012.7
20260506211111 12 180 3.2 9.7 0.00 4.01 0.00 50 1012.8
20260506210611 12 223 1.6 8.0 0.00 4.01 0.00 51 1012.7
20260506210112 12 189 4.8 8.0 0.00 4.01 0.00 52 1012.6
20260506204612 12 333 4.8 8.0 0.00 4.06 0.00 51 1012.6
20260506204112 12 93 1.6 8.0 0.00 4.09 0.00 53 1012.7
20260506203612 12 111 3.2 8.0 0.00 4.11 0.00 53 1012.7
20260506202611 12 309 4.8 8.0 0.00 4.14 0.00 51 1012.9
20260506202111 12 196 1.6 8.0 0.00 4.14 0.00 52 1012.9
20260506201612 12 349 3.2 4.8 0.00 4.14 0.00 52 1012.8
20260506201112 12 268 4.8 11.3 0.00 4.14 0.00 50 1013.1
20260506200612 12 141 1.6 8.0 0.00 4.14 0.00 51 1012.8
20260506195111 11 213 4.8 11.3 0.00 4.22 0.00 49 1012.7
20260506194112 12 31 8.0 12.9 0.00 4.22 0.00 53 1012.5
20260506192614 11 29 3.2 9.7 0.00 4.22 0.00 52 1012.8
20260506192113 12 13 3.2 8.0 0.00 4.22 0.00 53 1012.9
20260506191613 12 309 1.6 11.3 0.00 4.22 0.00 50 1012.8
20260506191113 12 155 3.2 11.3 0.00 4.22 0.00 51 1012.8
20260506190613 12 94 1.6 8.0 0.00 4.22 0.00 53 1012.6
20260506185613 12 0 4.8 9.7 0.00 4.22 0.00 54 1012.5
20260506184614 12 293 3.2 4.8 0.00 4.24 0.00 53 1012.8
20260506183613 12 37 6.4 11.3 0.00 4.27 0.00 52 1013.0
20260506183113 13 323 3.2 11.3 0.00 4.27 0.00 49 1012.8
20260506182614 12 190 3.2 8.0 0.00 4.27 0.00 52 1012.8
20260506182113 12 7 6.4 12.9 0.00 4.27 0.00 54 1012.8
20260506180613 12 36 6.4 11.3 0.00 4.27 0.00 53 1012.4
20260506180113 13 91 1.6 4.8 0.00 4.27 0.00 53 1012.7
20260506175613 13 65 6.4 9.7 0.00 4.27 0.00 48 1012.8
20260506175113 13 25 6.4 9.7 0.00 4.27 0.00 50 1012.9
20260506174613 13 272 1.6 11.3 0.00 4.27 0.00 53 1012.7
20260506174113 12 352 4.8 12.9 0.00 4.27 0.00 54 1013.0
20260506173614 12 23 8.0 12.9 0.00 4.27 0.00 55 1012.8
20260506173113 12 346 8.0 12.9 0.00 4.27 0.00 56 1012.9
20260506172113 12 88 6.4 9.7 0.00 4.27 0.00 55 1012.4
20260506171613 12 45 3.2 9.7 0.00 4.27 0.00 58 1012.8
20260506171113 12 207 3.2 9.7 0.00 4.27 0.00 55 1012.7
20260506170613 12 304 4.8 20.9 0.00 4.27 0.00 55 1012.6
20260506170113 12 49 8.0 20.9 0.00 4.27 0.00 57 1012.8
20260506165613 12 317 8.0 14.5 0.00 4.27 0.00 56 1012.6
20260506165113 12 291 3.2 11.3 0.00 4.27 0.00 58 1012.7
20260506164613 12 253 4.8 12.9 0.00 4.27 0.00 58 1012.7
20260506164113 12 48 8.0 12.9 0.00 4.27 0.00 57 1012.8
20260506163613 11 38 9.7 12.9 0.00 4.27 0.00 60 1012.9
20260506163114 11 352 8.0 12.9 0.00 4.27 0.00 57 1012.9
20260506162613 12 18 4.8 12.9 0.00 4.27 0.00 62 1012.9
20260506162114 11 177 1.6 14.5 0.00 4.27 0.00 59 1012.8
20260506161613 11 315 4.8 14.5 0.00 4.27 0.00 61 1012.8
20260506161113 11 33 9.7 19.3 0.00 4.27 0.00 62 1012.8
20260506160613 11 43 4.8 9.7 0.00 4.27 0.00 62 1012.6
20260506155613 11 242 1.6 8.0 0.00 4.27 0.00 65 1012.4
20260506155113 11 61 4.8 9.7 0.00 4.27 0.00 65 1012.3
20260506154613 11 58 4.8 4.8 0.00 4.27 0.00 65 1012.3
20260506154113 11 204 3.2 4.8 0.00 4.27 0.00 67 1012.3
20260506153613 11 205 3.2 8.0 0.00 4.27 0.00 68 1012.3
20260506153113 10 165 3.2 9.7 0.00 4.27 0.00 70 1012.5
20260506152613 11 157 4.8 9.7 0.00 4.27 0.00 68 1012.4
20260506152113 11 345 4.8 9.7 0.00 4.27 0.00 70 1012.4
20260506151613 10 249 4.8 8.0 0.00 4.27 0.00 71 1012.4
20260506151113 10 222 4.8 8.0 0.00 4.27 0.00 71 1012.3
20260506150613 10 47 4.8 9.7 0.00 4.27 0.00 71 1012.2
20260506145613 10 269 3.2 9.7 0.00 4.27 0.00 73 1012.1
20260506145113 9 328 3.2 9.7 0.00 4.27 0.00 74 1012.0
20260506144613 9 31 9.7 12.9 0.00 4.27 0.00 73 1011.9
20260506143613 9 10 8.0 11.3 0.00 4.27 0.00 74 1011.7
20260506142613 8 52 4.8 8.0 0.00 4.27 0.00 76 1011.8
20260506142113 8 276 3.2 8.0 0.00 4.27 0.00 76 1011.6
20260506141613 8 353 4.8 9.7 0.00 4.27 0.00 76 1011.7
20260506141113 8 255 3.2 8.0 0.00 4.27 0.00 77 1011.7
20260506140613 8 217 1.6 4.8 0.00 4.27 0.00 77 1011.7
20260506140113 8 280 3.2 4.8 0.00 4.27 0.00 77 1011.8
20260506135113 6 32 4.8 11.3 0.00 4.27 0.00 82 1011.6
20260506134613 6 32 4.8 11.3 0.00 4.27 0.00 82 1011.6
20260506134113 6 32 4.8 11.3 0.00 4.27 0.00 82 1011.6
20260506133613 6 32 4.8 11.3 0.00 4.27 0.00 82 1011.6
20260506133113 6 32 4.8 11.3 0.00 4.27 0.00 82 1011.6
20260506132613 6 32 4.8 11.3 0.00 4.27 0.00 82 1011.5
20260506132113 6 32 4.8 11.3 0.00 4.27 0.00 82 1011.2
20260506131613 6 32 4.8 11.3 0.00 4.27 0.00 82 1011.3
20260506131113 6 32 4.8 11.3 0.00 4.27 0.00 82 1011.2
20260506130613 6 32 4.8 11.3 0.00 4.27 0.00 82 1011.1
20260506130113 6 48 3.2 3.2 0.00 4.27 0.00 88 1011.3
20260506125613 6 48 3.2 3.2 0.00 4.27 0.00 88 1011.2
20260506124613 6 48 3.2 3.2 0.00 4.27 0.00 88 1010.8
20260506124113 6 48 3.2 8.0 0.00 4.27 0.00 88 1010.7
20260506123613 6 347 4.8 8.0 0.00 4.27 0.00 90 1010.8